Starlink 4331

operational
NORAD ID: 53046 Int'l Des: 2022-077 Owner: SPXS Country: US Constellation: starlink
LEOCIRCULARRETROGRADESSO

About Starlink 4331

Description loading...

Live Position

Loading 3D Globe...

Upcoming Passes

Altitude History

Altitude vs Time

uPlot chart will show altitude changes over time

Two-Line Element Set

1 53046U 22077D 25305.62499344 -.00000530 00000-0 -32553-4 0 9994
2 53046 97.6026 125.0798 0001928 88.7210 271.4238 15.05642947181727
Epoch: Nov 1, 2025 • Age: 16 hours

Current Status

Altitude 554.2 km
Velocity 7.59 km/s
Sub-Earth Point 39.07°N, 29.12°W
Launch Date Jul 11, 2022
Age 3.3 years
Type internet

Technical Details

Classification Payload
Mass 297.00 kg
Dry Mass 275.00 kg
Total Mass 297.00 kg
Length 0.20 m
Diameter 2.80 m
Span 9.00 m
Shape Box + pan
Manufacturer SPXS
Bus Type Starlink
Phase Status In Orbit
Owner/State SPXS/US

Large Constellations

Loading constellations...